Date String (YYYY-MM-DD hh:mm:ss) UTC,Instrument flags,Ambient pressure (hPa),Sample flow (lpm),Bypass flow (lpm),Sample temperature (°C),Ambient temperature (°C),ASC tube jacket temperature (°C),LED temperature (°C),Box temperature (°C),Sample RH (%),Span deviation,Mass concentration (μg/m³),Mass concentration (μg/m³),Mass concentration (μg/m³)
DateTimeUTC,F1_M11,P_M11,Q1_M11,Q2_M11,T1_M11,T2_M11,T3_M11,T4_M11,T5_M11,U1_M11,ZSPAN_M11,X0_M11,X2_M11,X1_M11
2023-02-23 01:00:00,,0810.3,5.01,0.00,22.8,22.6,00.0,31.5,24.6,04.3,0000.0,0004.29,0002.84,0002.28
2023-02-23 01:01:00,,0810.2,4.99,0.00,22.9,23.3,00.0,31.5,24.8,04.3,0000.0,0004.27,0002.84,0002.28
2023-02-23 01:02:00,,0810.2,5.00,0.00,22.9,22.9,00.0,31.6,24.7,04.3,0000.0,0004.34,0002.88,0002.30
2023-02-23 01:03:00,,0810.4,5.00,0.00,22.9,22.2,00.0,31.6,24.5,04.3,0000.0,0004.36,0002.89,0002.30
2023-02-23 01:04:00,,0810.3,5.00,0.00,22.8,21.6,00.0,31.6,24.3,04.3,0000.0,0004.18,0002.92,0002.32
2023-02-23 01:05:00,,0810.4,5.00,0.00,22.7,21.2,00.0,31.6,24.2,04.3,0000.0,0004.19,0002.93,0002.32
2023-02-23 01:06:00,,0810.4,4.99,0.00,22.7,20.9,00.0,31.5,24.1,04.3,0000.0,0004.17,0002.90,0002.32
2023-02-23 01:07:00,,0810.3,5.00,0.00,22.7,21.7,00.0,31.5,24.3,04.3,0000.0,0004.10,0002.87,0002.30
2023-02-23 01:08:00,,0810.2,4.99,0.00,22.8,22.6,00.0,31.5,24.6,04.2,0000.0,0004.22,0002.91,0002.31
2023-02-23 01:09:00,,0810.3,5.00,0.00,22.9,23.3,00.0,31.5,24.8,04.2,0000.0,0004.23,0002.89,0002.31
2023-02-23 01:10:00,,0810.5,4.98,0.00,22.9,22.9,00.0,31.5,24.7,04.2,0000.0,0004.29,0002.90,0002.31
2023-02-23 01:11:00,,0810.4,4.98,0.00,22.9,22.2,00.0,31.6,24.5,04.2,0000.0,0004.35,0002.91,0002.31
2023-02-23 01:12:00,,0810.3,5.01,0.00,22.8,21.6,00.0,31.6,24.3,04.2,0000.0,0004.26,0002.87,0002.30
2023-02-23 01:13:00,,0810.5,5.01,0.00,22.8,21.2,00.0,31.6,24.2,04.2,0000.0,0004.21,0002.83,0002.29
2023-02-23 01:14:00,,0810.6,5.00,0.00,22.7,21.0,00.0,31.5,24.1,04.2,0000.0,0004.19,0002.82,0002.29
2023-02-23 01:15:00,,0810.7,5.02,0.00,22.7,21.8,00.0,31.5,24.3,04.2,0000.0,0004.21,0002.82,0002.28
2023-02-23 01:16:00,,0810.6,4.98,0.00,22.8,22.7,00.0,31.5,24.6,04.2,0000.0,0004.28,0002.85,0002.29
2023-02-23 01:17:00,,0810.6,5.01,0.00,22.9,23.3,00.0,31.5,24.8,04.1,0000.0,0004.31,0002.87,0002.29
2023-02-23 01:18:00,,0810.6,4.97,0.00,23.0,23.0,00.0,31.6,24.8,04.1,0000.0,0004.33,0002.87,0002.28
2023-02-23 01:19:00,,0810.6,5.01,0.00,22.9,22.4,00.0,31.6,24.6,04.1,0000.0,0004.23,0002.83,0002.26
2023-02-23 01:20:00,,0810.6,4.99,0.00,22.9,21.8,00.0,31.6,24.3,04.1,0000.0,0004.24,0002.87,0002.24
2023-02-23 01:21:00,,0810.7,5.00,0.00,22.8,21.3,00.0,31.6,24.2,04.1,0000.0,0004.09,0002.84,0002.23
2023-02-23 01:22:00,,0810.8,4.99,0.00,22.7,20.9,00.0,31.6,24.1,04.1,0000.0,0004.15,0002.86,0002.23
2023-02-23 01:23:00,,0810.9,5.00,0.00,22.7,21.2,00.0,31.5,24.2,04.1,0000.0,0004.28,0002.90,0002.24
2023-02-23 01:24:00,,0811.0,5.00,0.00,22.8,22.1,00.0,31.5,24.4,04.1,0000.0,0004.27,0002.90,0002.24
2023-02-23 01:25:00,,0811.0,4.99,0.00,22.9,23.0,00.0,31.5,24.7,04.1,0000.0,0004.43,0002.93,0002.22
2023-02-23 01:26:00,,0811.0,4.96,0.00,22.9,23.3,00.0,31.5,24.8,04.1,0000.0,0004.49,0002.94,0002.22
2023-02-23 01:27:00,,0811.0,5.00,0.00,22.9,22.7,00.0,31.6,24.6,04.1,0000.0,0004.57,0002.93,0002.20
2023-02-23 01:28:00,,0811.1,5.01,0.00,22.9,22.0,00.0,31.6,24.5,04.1,0000.0,0004.53,0002.88,0002.18
2023-02-23 01:29:00,,0811.1,5.01,0.00,22.8,21.5,00.0,31.6,24.3,04.1,0000.0,0004.67,0002.91,0002.18
2023-02-23 01:30:00,,0811.1,5.00,0.00,22.7,21.0,00.0,31.5,24.2,04.1,0000.0,0004.71,0002.91,0002.18
2023-02-23 01:31:00,,0811.2,4.99,0.00,22.7,20.7,00.0,31.5,24.1,04.1,0000.0,0004.66,0002.91,0002.19
2023-02-23 01:32:00,,0811.2,5.01,0.00,22.6,20.9,00.0,31.5,24.1,04.1,0000.0,0004.66,0002.91,0002.20
2023-02-23 01:33:00,,0811.2,5.02,0.00,22.7,22.0,00.0,31.5,24.3,04.1,0000.0,0004.64,0002.92,0002.22
2023-02-23 01:34:00,,0811.2,5.02,0.00,22.8,22.8,00.0,31.5,24.6,04.1,0000.0,0004.62,0002.92,0002.22
2023-02-23 01:35:00,,0811.2,5.03,0.00,22.9,23.2,00.0,31.5,24.7,04.1,0000.0,0004.70,0002.94,0002.23
2023-02-23 01:36:00,,0811.2,5.00,0.00,22.9,22.6,00.0,31.5,24.6,04.1,0000.0,0004.59,0002.93,0002.23
2023-02-23 01:37:00,,0811.2,5.00,0.00,22.8,22.1,00.0,31.5,24.4,04.1,0000.0,0004.64,0002.97,0002.25
2023-02-23 01:38:00,,0811.2,5.00,0.00,22.8,21.5,00.0,31.5,24.2,04.1,0000.0,0004.58,0002.98,0002.28
2023-02-23 01:39:00,,0811.1,5.00,0.00,22.7,21.1,00.0,31.5,24.1,04.1,0000.0,0004.60,0003.03,0002.32
2023-02-23 01:40:00,,0811.2,4.99,0.00,22.6,20.7,00.0,31.5,24.0,04.1,0000.0,0004.43,0002.99,0002.32
2023-02-23 01:41:00,,0811.3,5.01,0.00,22.6,20.8,00.0,31.5,24.0,04.1,0000.0,0004.35,0002.97,0002.33
2023-02-23 01:42:00,,0811.3,5.01,0.00,22.6,21.8,00.0,31.4,24.3,04.1,0000.0,0004.29,0002.94,0002.32
2023-02-23 01:43:00,,0811.2,4.99,0.00,22.7,22.6,00.0,31.4,24.5,04.1,0000.0,0004.30,0002.95,0002.33
2023-02-23 01:44:00,,0811.2,5.00,0.00,22.8,23.3,00.0,31.5,24.7,04.0,0000.0,0004.21,0002.92,0002.32
2023-02-23 01:45:00,,0811.3,4.99,0.00,22.9,23.2,00.0,31.5,24.7,04.0,0000.0,0004.24,0002.93,0002.33
2023-02-23 01:46:00,,0811.4,4.98,0.00,22.9,22.5,00.0,31.5,24.5,04.0,0000.0,0004.23,0002.94,0002.33
2023-02-23 01:47:00,,0811.6,5.00,0.00,22.8,21.9,00.0,31.5,24.3,04.0,0000.0,0004.24,0002.96,0002.35
2023-02-23 01:48:00,,0811.6,5.00,0.00,22.7,21.4,00.0,31.5,24.2,04.0,0000.0,0004.30,0002.97,0002.35
2023-02-23 01:49:00,,0811.7,4.99,0.00,22.7,21.0,00.0,31.5,24.1,04.1,0000.0,0004.32,0002.99,0002.36
2023-02-23 01:50:00,,0811.7,5.00,0.00,22.6,20.7,00.0,31.5,24.0,04.1,0000.0,0004.28,0002.99,0002.37
2023-02-23 01:51:00,,0811.7,5.00,0.00,22.6,21.2,00.0,31.4,24.1,04.1,0000.0,0004.34,0003.03,0002.39
2023-02-23 01:52:00,,0811.7,4.97,0.00,22.7,22.2,00.0,31.4,24.4,04.1,0000.0,0004.45,0003.07,0002.41
2023-02-23 01:53:00,,0811.7,5.01,0.00,22.8,23.0,00.0,31.4,24.6,04.0,0000.0,0004.90,0003.12,0002.45
2023-02-23 01:54:00,,0811.7,5.02,0.00,22.9,23.0,00.0,31.5,24.7,04.0,0000.0,0005.18,0003.14,0002.46
2023-02-23 01:55:00,,0811.7,4.99,0.00,22.8,22.3,00.0,31.5,24.5,04.0,0000.0,0005.28,0003.15,0002.47
2023-02-23 01:56:00,,0811.9,4.99,0.00,22.8,21.8,00.0,31.5,24.3,04.0,0000.0,0005.26,0003.15,0002.48
2023-02-23 01:57:00,,0812.0,5.02,0.00,22.7,21.3,00.0,31.5,24.2,04.1,0000.0,0005.33,0003.16,0002.50
2023-02-23 01:58:00,,0812.1,4.99,0.00,22.6,20.9,00.0,31.5,24.1,04.1,0000.0,0005.38,0003.17,0002.51
2023-02-23 01:59:00,,0812.1,5.01,0.00,22.6,20.6,00.0,31.4,24.0,04.1,0000.0,0005.41,0003.17,0002.51
